Saint Michaels, AZ

5:59 PM MDT on September 28, 2016 (GMT -0600)
Window Rock

Weather History for KRQE - June, 2012

Change the Weather History Date:

Monday, June 11, 2012

  Actual Average Record
Temperature  
Mean Temperature 60 °F -  
Max Temperature 84 °F 78 °F 90 °F (1961)
Min Temperature 37 °F 45 °F 32 °F (1954)
Degree Days  
Heating Degree Days 4    
Growing Degree Days 10 (Base 50)    
Moisture  
Dew Point 8 °F    
Average Humidity 13    
Maximum Humidity 33    
Minimum Humidity 5    
Precipitation  
Precipitation 0.00 in - - ()
Sea Level Pressure  
Sea Level Pressure 29.90 in    
Wind  
Wind Speed 4 mph (SW)    
Max Wind Speed 16 mph    
Max Gust Speed 24 mph    
Visibility 10 miles    
Events      
Averages and records for this station are not official NWS values.
T = Trace of Precipitation, MM = Missing Value Source: NWS Daily Summary

Daily Weather History Graph

Daily Weather History Graph

Search for Another Location

Airport or City:

Trip Planner

Search our weather history database for the weather conditions in past years. The results will help you decide how hot, cold, wet, or windy it might be!

Date:

Astronomy

Jun. 11, 2012 Rise Set
Actual Time 5:59 AM MDT 8:32 PM MDT
Civil Twilight 5:29 AM MDT 9:02 PM MDT
Nautical Twilight 4:52 AM MDT 9:39 PM MDT
Astronomical Twilight 4:11 AM MDT 10:20 PM MDT
Moon 1:07 AM MDT (6/11) 1:37 PM MDT (6/11)
Length of Visible Light 15h 32m
Length of Day
14h 32m
Waning Gibbous, 47% of the Moon is Illuminated
Jun 11
Waning Gibbous
Jun 19
New
Jun 26
First Quarter
Jul 3
Full
Jul 10
Last Quarter

Hourly Weather History & Observations

Time (MDT) Temp. Dew Point Humidity Pressure Visibility Wind Dir Wind Speed Gust Speed Precip Events Conditions
12:53 AM 52.0 °F 10.9 °F 19% 29.85 in 10.0 mi South 3.5 mph - N/A   Clear
1:53 AM 51.1 °F 10.0 °F 19% 29.86 in 10.0 mi North 3.5 mph - N/A   Clear
2:53 AM 48.0 °F 10.0 °F 22% 29.87 in 10.0 mi Calm Calm - N/A   Clear
3:53 AM 43.0 °F 10.0 °F 26% 29.88 in 10.0 mi Calm Calm - N/A   Clear
4:53 AM 37.9 °F 10.9 °F 33% 29.93 in 10.0 mi Calm Calm - N/A   Clear
5:53 AM 37.0 °F 10.0 °F 33% 29.95 in 10.0 mi Calm Calm - N/A   Clear
7:53 AM 51.1 °F 10.9 °F 20% 29.94 in 10.0 mi Calm Calm - N/A   Clear
8:53 AM 60.1 °F 10.9 °F 14% 29.94 in 10.0 mi Calm Calm - N/A   Clear
9:53 AM 71.1 °F 5.0 °F 8% 29.91 in 10.0 mi East 5.8 mph - N/A   Clear
10:53 AM 73.0 °F 16.0 °F 11% 29.88 in 10.0 mi Calm Calm - N/A   Clear
11:53 AM 78.1 °F 18.0 °F 10% 29.86 in 10.0 mi SSE 11.5 mph - N/A   Clear
12:53 PM 81.0 °F 16.0 °F 9% 29.87 in 10.0 mi SSW 10.4 mph 21.9 mph N/A   Clear
1:53 PM 81.0 °F 10.9 °F 7% 29.87 in 10.0 mi SW 6.9 mph 16.1 mph N/A   Clear
2:53 PM 84.0 °F 9.0 °F 6% 29.86 in 10.0 mi SSW 15.0 mph 20.7 mph N/A   Clear
3:53 PM 84.0 °F 5.0 °F 5% 29.88 in 10.0 mi West 13.8 mph 20.7 mph N/A   Clear
4:37 PM 82.4 °F 3.2 °F 5% 30.19 in 10.0 mi WSW 8.1 mph 21.9 mph N/A   Clear
4:53 PM 82.9 °F 3.0 °F 5% 29.90 in 10.0 mi WSW 16.1 mph 24.2 mph N/A   Clear
5:53 PM 81.0 °F 5.0 °F 5% 29.91 in 10.0 mi SSW 12.7 mph 19.6 mph N/A   Clear
6:53 PM 80.1 °F 3.0 °F 5% 29.88 in 10.0 mi WSW 13.8 mph 24.2 mph N/A   Clear
7:53 PM 78.1 °F 3.0 °F 5% 29.86 in 10.0 mi West 8.1 mph - N/A   Clear
8:53 PM 70.0 °F 5.0 °F 8% 29.87 in 10.0 mi Calm Calm - N/A   Clear
9:53 PM 66.9 °F 5.0 °F 9% 29.86 in 10.0 mi Calm Calm - N/A   Clear
10:53 PM 57.9 °F 6.1 °F 13% 29.90 in 10.0 mi Calm Calm - N/A   Clear
11:53 PM 55.9 °F 6.1 °F 14% 29.90 in 10.0 mi South 4.6 mph - N/A   Clear